• In Hungary
  • List of Countries
  • For 7 days
  • Water Temperature
  • Satellite Maps
  • Weather Map
  • News
  • Weather Widgets
  • user-avatar
    Login

    Hourly Weather Ostend

    Today, 13 December, Wednesday

    Time Temperature Precipitation Wind Pressure Humidity
    00:00 -1°C° 0 mm 9 mps 757 mmHg 87%
    01:00 0°C° 0.2 mm 10 mps 756 mmHg 87%
    02:00 0°C° 0.2 mm 10 mps 755 mmHg 87%
    03:00 +1°C° 0.2 mm 11 mps 754 mmHg 87%
    04:00 0°C° 0.5 mm 12 mps 753 mmHg 86%
    05:00 0°C° 0.5 mm 12 mps 752 mmHg 86%
    06:00 0°C° 0 mm 13 mps 751 mmHg 86%
    07:00 +2°C° 0.6 mm 12 mps 751 mmHg 87%
    08:00 +2°C° 0.6 mm 11 mps 750 mmHg 87%
    09:00 +3°C° 0.6 mm 10 mps 749 mmHg 88%
    10:00 +3°C° 0.3 mm 10 mps 749 mmHg 87%
    11:00 +5°C° 0.3 mm 9 mps 749 mmHg 87%
    12:00 +5°C° 0 mm 8 mps 748 mmHg 85%
    13:00 +5°C° 0.5 mm 8 mps 747 mmHg 87%
    14:00 +5°C° 0.5 mm 9 mps 746 mmHg 89%
    15:00 +5°C° 0.5 mm 9 mps 745 mmHg 90%
    16:00 +6°C° 1.9 mm 10 mps 744 mmHg 90%
    17:00 +6°C° 1.9 mm 11 mps 743 mmHg 89%
    18:00 +5°C° 1.9 mm 12 mps 742 mmHg 88%
    19:00 +6°C° 0.4 mm 11 mps 742 mmHg 83%
    20:00 +5°C° 0.4 mm 10 mps 742 mmHg 78%
    21:00 +5°C° 0.4 mm 10 mps 742 mmHg 73%
    22:00 +3°C° 0.2 mm 10 mps 742 mmHg 74%
    23:00 +3°C° 0.2 mm 9 mps 743 mmHg 76%

    Tomorrow, 14 December, Thursday

    Time Temperature Precipitation Wind Pressure Humidity
    00:00 +2°C° 0.2 mm 9 mps 743 mmHg 78%
    01:00 +2°C° 0.5 mm 10 mps 743 mmHg 74%
    02:00 +2°C° 0.5 mm 12 mps 743 mmHg 70%
    03:00 +1°C° 0.5 mm 13 mps 744 mmHg 66%
    04:00 +2°C° 0.1 mm 12 mps 744 mmHg 66%
    05:00 +2°C° 0.1 mm 12 mps 745 mmHg 67%
    06:00 +1°C° 0.1 mm 11 mps 745 mmHg 68%
    07:00 +2°C° 0.1 mm 11 mps 745 mmHg 68%
    08:00 +2°C° 0.1 mm 10 mps 745 mmHg 68%
    09:00 +2°C° 0.1 mm 10 mps 745 mmHg 68%
    10:00 +3°C° 0.1 mm 10 mps 745 mmHg 65%
    11:00 +3°C° 0.1 mm 10 mps 745 mmHg 63%
    12:00 +5°C° 0.1 mm 9 mps 744 mmHg 60%
    13:00 +3°C° 0.1 mm 9 mps 744 mmHg 62%
    14:00 +4°C° 0.1 mm 8 mps 743 mmHg 64%
    15:00 +2°C° 0.1 mm 8 mps 743 mmHg 66%
    16:00 +3°C° 0.1 mm 7 mps 743 mmHg 68%
    17:00 +2°C° 0.1 mm 7 mps 743 mmHg 70%
    18:00 +2°C° 0.1 mm 6 mps 743 mmHg 72%
    19:00 +2°C° 0 mm 6 mps 743 mmHg 73%
    20:00 0°C° 0 mm 7 mps 743 mmHg 74%
    21:00 0°C° 0 mm 7 mps 743 mmHg 75%
    22:00 +1°C° 0 mm 6 mps 743 mmHg 76%
    23:00 +1°C° 0 mm 6 mps 743 mmHg 77%

    Day after tomorrow, 15 December, Friday

    Time Temperature Precipitation Wind Pressure Humidity
    00:00 -1°C° 0 mm 6 mps 743 mmHg 78%
    01:00 -1°C° 0 mm 6 mps 743 mmHg 80%
    02:00 -1°C° 0 mm 6 mps 743 mmHg 82%
    03:00 -1°C° 0 mm 6 mps 743 mmHg 84%
    04:00 -1°C° 0.1 mm 6 mps 743 mmHg 86%
    05:00 0°C° 0.1 mm 5 mps 744 mmHg 88%
    06:00 0°C° 0.1 mm 5 mps 744 mmHg 90%
    07:00 0°C° 0 mm 4 mps 744 mmHg 90%
    08:00 +1°C° 0 mm 3 mps 745 mmHg 90%
    09:00 +2°C° 0 mm 3 mps 745 mmHg 89%
    10:00 +3°C° 0 mm 3 mps 746 mmHg 86%
    11:00 +4°C° 0 mm 3 mps 746 mmHg 83%
    12:00 +5°C° 0 mm 3 mps 747 mmHg 79%
    13:00 +5°C° 0 mm 4 mps 748 mmHg 81%
    14:00 +5°C° 0 mm 4 mps 748 mmHg 83%
    15:00 +4°C° 0 mm 4 mps 749 mmHg 85%
    16:00 +3°C° 0.1 mm 5 mps 750 mmHg 85%
    17:00 +3°C° 0.1 mm 5 mps 751 mmHg 85%
    18:00 +2°C° 0.1 mm 6 mps 752 mmHg 85%
    19:00 +2°C° 0.1 mm 6 mps 753 mmHg 82%
    20:00 +2°C° 0.1 mm 6 mps 753 mmHg 80%
    21:00 +2°C° 0.1 mm 6 mps 754 mmHg 78%
    22:00 +2°C° 0.1 mm 6 mps 755 mmHg 78%
    23:00 +2°C° 0.1 mm 6 mps 755 mmHg 79%

    16 December, Saturday

    Time Temperature Precipitation Wind Pressure Humidity
    00:00 +2°C° 0.1 mm 7 mps 756 mmHg 80%
    01:00 +2°C° 0.2 mm 7 mps 756 mmHg 81%
    02:00 +2°C° 0.2 mm 7 mps 756 mmHg 81%
    03:00 +2°C° 0.2 mm 7 mps 757 mmHg 82%
    04:00 +2°C° 0.2 mm 7 mps 757 mmHg 82%
    05:00 0°C° 0.2 mm 7 mps 758 mmHg 81%
    06:00 0°C° 0.2 mm 7 mps 758 mmHg 80%
    07:00 0°C° 0.1 mm 7 mps 758 mmHg 79%
    08:00 0°C° 0.1 mm 7 mps 759 mmHg 78%
    09:00 0°C° 0.1 mm 7 mps 760 mmHg 77%
    10:00 +2°C° 0.1 mm 7 mps 760 mmHg 74%
    11:00 +2°C° 0.1 mm 7 mps 761 mmHg 71%
    12:00 +3°C° 0.1 mm 7 mps 761 mmHg 68%
    13:00 +3°C° 0.1 mm 7 mps 761 mmHg 71%
    14:00 +3°C° 0.1 mm 7 mps 762 mmHg 73%
    15:00 +2°C° 0.1 mm 7 mps 762 mmHg 76%
    16:00 +2°C° 0.1 mm 6 mps 763 mmHg 77%
    17:00 +2°C° 0.1 mm 6 mps 763 mmHg 78%
    18:00 +1°C° 0.1 mm 5 mps 764 mmHg 80%
    19:00 +1°C° 0 mm 5 mps 764 mmHg 80%
    20:00 +1°C° 0 mm 5 mps 765 mmHg 80%
    21:00 +1°C° 0 mm 4 mps 765 mmHg 80%
    22:00 +1°C° 0 mm 5 mps 766 mmHg 79%
    23:00 0°C° 0 mm 5 mps 766 mmHg 78%

    17 December, Sunday

    Time Temperature Precipitation Wind Pressure Humidity
    00:00 0°C° 0 mm 5 mps 766 mmHg 77%
    01:00 +1°C° 0 mm 5 mps 766 mmHg 78%
    02:00 +1°C° 0 mm 5 mps 766 mmHg 79%
    03:00 +1°C° 0 mm 4 mps 766 mmHg 79%
    04:00 +1°C° 0 mm 4 mps 766 mmHg 81%
    05:00 +1°C° 0 mm 4 mps 767 mmHg 83%
    06:00 +1°C° 0 mm 4 mps 767 mmHg 85%
    07:00 +2°C° 0 mm 3 mps 767 mmHg 85%
    08:00 +3°C° 0 mm 3 mps 768 mmHg 85%
    09:00 +3°C° 0 mm 3 mps 768 mmHg 85%
    10:00 +3°C° 0 mm 3 mps 768 mmHg 82%
    11:00 +4°C° 0 mm 3 mps 769 mmHg 79%
    12:00 +5°C° 0 mm 3 mps 769 mmHg 76%
    13:00 +5°C° 0 mm 3 mps 769 mmHg 78%
    14:00 +4°C° 0 mm 3 mps 769 mmHg 80%
    15:00 +4°C° 0 mm 3 mps 769 mmHg 82%
    16:00 +3°C° 0 mm 3 mps 769 mmHg 84%
    17:00 +3°C° 0 mm 3 mps 769 mmHg 87%
    18:00 +2°C° 0 mm 3 mps 770 mmHg 90%
    19:00 +1°C° 0 mm 4 mps 770 mmHg 90%
    20:00 +1°C° 0 mm 4 mps 770 mmHg 91%
    21:00 +1°C° 0 mm 5 mps 770 mmHg 91%
    22:00 +1°C° 0 mm 5 mps 770 mmHg 90%
    23:00 +2°C° 0 mm 6 mps 770 mmHg 90%

    18 December, Monday

    Time Temperature Precipitation Wind Pressure Humidity
    00:00 +2°C° 0 mm 6 mps 769 mmHg 89%
    01:00 +2°C° 0 mm 7 mps 769 mmHg 90%
    02:00 +3°C° 0 mm 7 mps 769 mmHg 92%
    03:00 +3°C° 0 mm 7 mps 769 mmHg 93%
    04:00 +4°C° 0.1 mm 7 mps 769 mmHg 93%
    05:00 +4°C° 0.1 mm 7 mps 769 mmHg 93%
    06:00 +5°C° 0.1 mm 8 mps 769 mmHg 93%
    07:00 +5°C° 0.3 mm 8 mps 769 mmHg 92%
    08:00 +6°C° 0.3 mm 8 mps 769 mmHg 92%
    09:00 +7°C° 0.3 mm 8 mps 769 mmHg 92%
    10:00 +7°C° 0.1 mm 8 mps 769 mmHg 92%
    11:00 +7°C° 0.1 mm 8 mps 769 mmHg 92%
    12:00 +8°C° 0.1 mm 7 mps 769 mmHg 92%
    13:00 +8°C° 0 mm 7 mps 769 mmHg 92%
    14:00 +8°C° 0 mm 6 mps 769 mmHg 93%
    15:00 +8°C° 0 mm 5 mps 769 mmHg 94%
    16:00 +8°C° 0 mm 5 mps 770 mmHg 95%
    17:00 +7°C° 0 mm 4 mps 770 mmHg 95%
    18:00 +7°C° 0 mm 4 mps 770 mmHg 96%
    19:00 +8°C° 0 mm 3 mps 771 mmHg 96%
    20:00 +7°C° 0 mm 3 mps 771 mmHg 96%
    21:00 +7°C° 0 mm 3 mps 772 mmHg 96%
    22:00 +7°C° 0 mm 2 mps 772 mmHg 96%
    23:00 +6°C° 0 mm 2 mps 773 mmHg 96%
    Show more